Time,TemperatureF,DewpointF,PressureIn,WindDirection,WindDirectionDegrees,WindSpeedMPH,WindSpeedGustMPH,Humidity,HourlyPrecipIn,Conditions,Clouds,dailyrainin,SoftwareType,DateUTC
2013-02-13 00:00:00,48.1,-99.9,30.26,SSW,202,6.0,12.0,-999,0.00,,,0.00,homebrew,2013-02-13 08:00:00,
2013-02-13 00:05:00,48.1,-99.9,30.27,SSW,202,5.7,21.5,-999,0.00,,,0.00,homebrew,2013-02-13 08:05:00,
2013-02-13 00:10:00,48.2,-99.9,30.28,SSW,202,5.6,14.9,-999,0.00,,,0.00,homebrew,2013-02-13 08:10:00,
2013-02-13 00:20:00,48.1,-99.9,30.29,SSW,200,5.9,17.7,-999,0.00,,,0.00,homebrew,2013-02-13 08:20:00,
2013-02-13 00:25:00,48.1,-99.9,30.29,SSW,201,4.3,16.1,-999,0.00,,,0.00,homebrew,2013-02-13 08:25:00,
2013-02-13 00:30:00,48.1,-99.9,30.30,SW,216,4.4,12.5,-999,0.00,,,0.00,homebrew,2013-02-13 08:30:00,
2013-02-13 00:35:00,48.0,-99.9,30.30,SW,214,4.5,10.6,-999,0.00,,,0.00,homebrew,2013-02-13 08:35:00,
2013-02-13 00:40:00,48.0,-99.9,30.30,SSW,202,3.3,9.4,-999,0.00,,,0.00,homebrew,2013-02-13 08:40:00,
2013-02-13 00:45:00,47.9,-99.9,30.30,SSW,213,3.8,7.3,-999,0.00,,,0.00,homebrew,2013-02-13 08:45:00,
2013-02-13 00:55:00,47.8,-99.9,30.30,SSW,211,3.2,6.8,-999,0.00,,,0.00,homebrew,2013-02-13 08:55:00,
2013-02-13 01:00:00,47.8,-99.9,30.30,SW,219,4.4,9.3,-999,0.00,,,0.00,homebrew,2013-02-13 09:00:00,
2013-02-13 01:05:00,47.8,-99.9,30.30,SW,219,4.6,12.2,-999,0.00,,,0.00,homebrew,2013-02-13 09:05:00,
2013-02-13 01:10:00,47.8,-99.9,30.30,SW,215,3.8,12.5,-999,0.00,,,0.00,homebrew,2013-02-13 09:10:00,
2013-02-13 01:15:00,47.7,-99.9,30.30,SSW,209,3.6,9.9,-999,0.00,,,0.00,homebrew,2013-02-13 09:15:00,
2013-02-13 01:20:00,47.7,-99.9,30.30,SW,214,4.8,8.5,-999,0.00,,,0.00,homebrew,2013-02-13 09:20:00,
2013-02-13 01:25:00,47.7,-99.9,30.30,SW,214,5.6,16.7,-999,0.00,,,0.00,homebrew,2013-02-13 09:25:00,
2013-02-13 01:30:00,47.6,-99.9,30.30,SSW,213,4.8,10.6,-999,0.00,,,0.00,homebrew,2013-02-13 09:30:00,
2013-02-13 01:35:00,47.5,-99.9,30.29,SW,216,5.2,13.9,-999,0.00,,,0.00,homebrew,2013-02-13 09:35:00,
2013-02-13 01:45:00,47.5,-99.9,30.29,SSW,211,4.6,16.0,-999,0.00,,,0.00,homebrew,2013-02-13 09:45:00,
2013-02-13 01:50:00,47.5,-99.9,30.30,SSW,211,5.5,9.7,-999,0.00,,,0.00,homebrew,2013-02-13 09:50:00,
2013-02-13 01:55:00,47.5,-99.9,30.30,SSW,212,4.8,15.2,-999,0.00,,,0.00,homebrew,2013-02-13 09:55:00,
2013-02-13 02:00:00,47.5,-99.9,30.30,SSW,210,4.7,14.4,-999,0.00,,,0.00,homebrew,2013-02-13 10:00:00,
2013-02-13 02:05:00,47.4,-99.9,30.31,SSW,212,4.2,10.7,-999,0.00,,,0.00,homebrew,2013-02-13 10:05:00,
2013-02-13 02:10:00,47.3,-99.9,30.31,SSW,207,2.9,11.7,-999,0.00,,,0.00,homebrew,2013-02-13 10:10:00,
2013-02-13 02:15:00,47.1,-99.9,30.31,SW,216,3.9,8.7,-999,0.00,,,0.00,homebrew,2013-02-13 10:15:00,
2013-02-13 02:20:00,46.9,-99.9,30.31,SW,214,3.9,10.1,-999,0.00,,,0.00,homebrew,2013-02-13 10:20:00,
2013-02-13 02:25:00,46.7,-99.9,30.30,SW,214,4.3,10.5,-999,0.00,,,0.00,homebrew,2013-02-13 10:25:00,
2013-02-13 02:30:00,46.6,-99.9,30.30,SW,218,4.4,12.4,-999,0.00,,,0.00,homebrew,2013-02-13 10:30:00,
2013-02-13 02:35:00,46.4,-99.9,30.31,SW,217,3.0,14.4,-999,0.00,,,0.00,homebrew,2013-02-13 10:35:00,
2013-02-13 02:40:00,46.2,-99.9,30.31,SSW,203,2.5,8.7,-999,0.00,,,0.00,homebrew,2013-02-13 10:40:00,
2013-02-13 02:45:00,46.2,-99.9,30.31,WSW,238,4.1,11.1,-999,0.00,,,0.00,homebrew,2013-02-13 10:45:00,
2013-02-13 02:50:00,46.1,-99.9,30.31,SSW,206,1.9,7.0,-999,0.00,,,0.00,homebrew,2013-02-13 10:50:00,
2013-02-13 02:55:00,46.1,-99.9,30.31,SW,217,2.5,10.0,-999,0.00,,,0.00,homebrew,2013-02-13 10:55:00,
2013-02-13 03:00:00,46.0,-99.9,30.31,SW,232,2.8,5.8,-999,0.00,,,0.00,homebrew,2013-02-13 11:00:00,
2013-02-13 03:05:00,46.0,-99.9,30.31,SW,222,3.1,7.0,-999,0.00,,,0.00,homebrew,2013-02-13 11:05:00,
2013-02-13 03:10:00,46.0,-99.9,30.31,SW,216,2.5,6.8,-999,0.00,,,0.00,homebrew,2013-02-13 11:10:00,
2013-02-13 03:15:00,46.0,-99.9,30.31,SSW,209,2.3,5.0,-999,0.00,,,0.00,homebrew,2013-02-13 11:15:00,
2013-02-13 03:20:00,46.0,-99.9,30.32,SW,220,1.9,6.0,-999,0.00,,,0.00,homebrew,2013-02-13 11:20:00,
2013-02-13 03:25:00,46.0,-99.9,30.32,South,185,1.7,5.0,-999,0.00,,,0.00,homebrew,2013-02-13 11:25:00,
2013-02-13 03:30:00,46.0,-99.9,30.32,South,173,0.5,6.8,-999,0.00,,,0.00,homebrew,2013-02-13 11:30:00,
2013-02-13 03:40:00,45.9,-99.9,30.32,SSW,211,1.8,6.2,-999,0.00,,,0.00,homebrew,2013-02-13 11:40:00,
2013-02-13 03:45:00,45.9,-99.9,30.32,SSW,200,1.4,4.3,-999,0.00,,,0.00,homebrew,2013-02-13 11:45:00,
2013-02-13 03:50:00,45.8,-99.9,30.32,South,188,1.0,3.8,-999,0.00,,,0.00,homebrew,2013-02-13 11:50:00,
2013-02-13 03:55:00,45.8,-99.9,30.32,SSW,202,2.0,4.2,-999,0.00,,,0.00,homebrew,2013-02-13 11:55:00,
2013-02-13 04:00:00,45.8,-99.9,30.32,SSW,209,1.5,6.1,-999,0.00,,,0.00,homebrew,2013-02-13 12:00:00,
2013-02-13 04:05:00,45.8,-99.9,30.32,SW,215,2.6,7.6,-999,0.00,,,0.00,homebrew,2013-02-13 12:05:00,
2013-02-13 04:10:00,45.7,-99.9,30.32,West,261,0.7,7.1,-999,0.00,,,0.00,homebrew,2013-02-13 12:10:00,
2013-02-13 04:15:00,45.7,-99.9,30.32,SSW,194,1.6,5.5,-999,0.00,,,0.00,homebrew,2013-02-13 12:15:00,
2013-02-13 04:20:00,45.6,-99.9,30.32,SSW,212,1.2,4.0,-999,0.00,,,0.00,homebrew,2013-02-13 12:20:00,
2013-02-13 04:25:00,45.6,-99.9,30.32,SW,216,0.0,2.8,-999,0.00,,,0.00,homebrew,2013-02-13 12:25:00,
2013-02-13 04:30:00,45.5,-99.9,30.33,SW,225,3.8,7.0,-999,0.00,,,0.00,homebrew,2013-02-13 12:30:00,
2013-02-13 04:35:00,45.6,-99.9,30.33,SSW,213,4.2,9.3,-999,0.00,,,0.00,homebrew,2013-02-13 12:35:00,
2013-02-13 04:40:00,45.6,-99.9,30.33,SSW,207,2.9,8.9,-999,0.00,,,0.00,homebrew,2013-02-13 12:40:00,
2013-02-13 04:45:00,45.4,-99.9,30.32,SW,224,5.1,9.1,-999,0.00,,,0.00,homebrew,2013-02-13 12:45:00,
2013-02-13 04:50:00,45.3,-99.9,30.33,SW,222,3.7,9.8,-999,0.00,,,0.00,homebrew,2013-02-13 12:50:00,
2013-02-13 04:55:00,45.1,-99.9,30.33,SW,217,3.3,8.4,-999,0.00,,,0.00,homebrew,2013-02-13 12:55:00,
2013-02-13 05:00:00,45.0,-99.9,30.33,SSW,207,1.8,9.3,-999,0.00,,,0.00,homebrew,2013-02-13 13:00:00,
2013-02-13 05:05:00,44.8,-99.9,30.33,SSW,197,2.0,7.8,-999,0.00,,,0.00,homebrew,2013-02-13 13:05:00,
2013-02-13 05:10:00,44.7,-99.9,30.34,SSW,203,2.2,6.9,-999,0.00,,,0.00,homebrew,2013-02-13 13:10:00,
2013-02-13 05:15:00,44.6,-99.9,30.33,SSW,206,1.9,6.5,-999,0.00,,,0.00,homebrew,2013-02-13 13:15:00,
2013-02-13 05:20:00,44.6,-99.9,30.33,SSW,197,2.2,7.3,-999,0.00,,,0.00,homebrew,2013-02-13 13:20:00,
2013-02-13 05:25:00,44.7,-99.9,30.34,SSW,213,2.8,8.1,-999,0.00,,,0.00,homebrew,2013-02-13 13:25:00,
2013-02-13 05:35:00,44.7,-99.9,30.33,SW,214,3.1,7.3,-999,0.00,,,0.00,homebrew,2013-02-13 13:35:00,
2013-02-13 05:40:00,44.7,-99.9,30.33,SSW,207,2.3,7.8,-999,0.00,,,0.00,homebrew,2013-02-13 13:40:00,
2013-02-13 05:50:00,44.5,-99.9,30.34,SW,230,3.2,3.2,-999,0.00,,,0.00,homebrew,2013-02-13 13:50:00,
2013-02-13 05:55:00,44.5,-99.9,30.34,SSW,212,2.8,12.1,-999,0.00,,,0.00,homebrew,2013-02-13 13:55:00,
2013-02-13 06:00:00,44.5,-99.9,30.34,SSW,205,1.9,7.3,-999,0.00,,,0.00,homebrew,2013-02-13 14:00:00,
2013-02-13 06:05:00,44.4,-99.9,30.34,SSW,193,2.0,5.4,-999,0.00,,,0.00,homebrew,2013-02-13 14:05:00,
2013-02-13 06:10:00,44.4,-99.9,30.34,SSW,210,1.4,4.1,-999,0.00,,,0.00,homebrew,2013-02-13 14:10:00,
2013-02-13 06:15:00,44.4,-99.9,30.34,SW,233,0.7,4.7,-999,0.00,,,0.00,homebrew,2013-02-13 14:15:00,
2013-02-13 06:25:00,44.4,-99.9,30.34,South,190,1.0,5.2,-999,0.00,,,0.00,homebrew,2013-02-13 14:25:00,
2013-02-13 06:30:00,44.4,-99.9,30.35,South,180,1.1,4.3,-999,0.00,,,0.00,homebrew,2013-02-13 14:30:00,
2013-02-13 06:35:00,44.4,-99.9,30.35,South,188,1.4,3.7,-999,0.00,,,0.00,homebrew,2013-02-13 14:35:00,
2013-02-13 06:40:00,44.3,-99.9,30.35,South,188,0.7,5.0,-999,0.00,,,0.00,homebrew,2013-02-13 14:40:00,
2013-02-13 06:45:00,44.3,-99.9,30.35,SW,226,0.2,2.9,-999,0.00,,,0.00,homebrew,2013-02-13 14:45:00,
2013-02-13 06:50:00,44.3,-99.9,30.35,SSE,167,0.2,2.7,-999,0.00,,,0.00,homebrew,2013-02-13 14:50:00,
2013-02-13 06:55:00,44.3,-99.9,30.35,SSW,201,0.5,2.7,-999,0.00,,,0.00,homebrew,2013-02-13 14:55:00,
2013-02-13 07:00:00,44.2,-99.9,30.35,SSW,202,0.1,3.8,-999,0.00,,,0.00,homebrew,2013-02-13 15:00:00,
2013-02-13 07:05:00,44.2,-99.9,30.35,SSW,210,1.3,2.2,-999,0.00,,,0.00,homebrew,2013-02-13 15:05:00,
2013-02-13 07:10:00,44.2,-99.9,30.36,South,182,0.4,5.3,-999,0.00,,,0.00,homebrew,2013-02-13 15:10:00,
2013-02-13 07:15:00,44.2,-99.9,30.36,SSW,192,0.3,2.4,-999,0.00,,,0.00,homebrew,2013-02-13 15:15:00,
2013-02-13 07:20:00,44.2,-99.9,30.36,SSW,192,0.5,2.9,-999,0.00,,,0.00,homebrew,2013-02-13 15:20:00,
2013-02-13 07:25:00,44.2,-99.9,30.36,South,185,0.2,1.6,-999,0.00,,,0.00,homebrew,2013-02-13 15:25:00,
2013-02-13 07:30:00,44.2,-99.9,30.37,SSW,201,0.0,3.1,-999,0.00,,,0.00,homebrew,2013-02-13 15:30:00,
2013-02-13 07:35:00,44.2,-99.9,30.36,South,185,0.3,2.7,-999,0.00,,,0.00,homebrew,2013-02-13 15:35:00,
2013-02-13 07:40:00,44.2,-99.9,30.36,South,173,0.4,1.3,-999,0.00,,,0.00,homebrew,2013-02-13 15:40:00,
2013-02-13 07:45:00,44.2,-99.9,30.37,SSE,157,0.1,2.5,-999,0.00,,,0.00,homebrew,2013-02-13 15:45:00,
2013-02-13 07:50:00,44.2,-99.9,30.37,South,183,0.9,1.7,-999,0.00,,,0.00,homebrew,2013-02-13 15:50:00,
2013-02-13 07:55:00,44.3,-99.9,30.37,SSW,201,1.1,5.6,-999,0.00,,,0.00,homebrew,2013-02-13 15:55:00,
2013-02-13 08:00:00,44.3,-99.9,30.37,South,172,0.8,4.3,-999,0.00,,,0.00,homebrew,2013-02-13 16:00:00,
2013-02-13 08:05:00,44.4,-99.9,30.37,SW,225,0.3,4.0,-999,0.00,,,0.00,homebrew,2013-02-13 16:05:00,
2013-02-13 08:10:00,44.5,-99.9,30.37,West,261,0.0,1.9,-999,0.00,,,0.00,homebrew,2013-02-13 16:10:00,
2013-02-13 08:20:00,44.5,-99.9,30.38,SSW,211,2.2,4.9,-999,0.00,,,0.00,homebrew,2013-02-13 16:20:00,
2013-02-13 08:25:00,44.5,-99.9,30.38,South,188,1.5,7.1,-999,0.00,,,0.00,homebrew,2013-02-13 16:25:00,
2013-02-13 08:30:00,44.5,-99.9,30.38,SSW,207,1.5,4.8,-999,0.00,,,0.00,homebrew,2013-02-13 16:30:00,
2013-02-13 08:35:00,44.6,-99.9,30.38,SW,223,2.2,4.6,-999,0.00,,,0.00,homebrew,2013-02-13 16:35:00,
2013-02-13 08:40:00,44.6,-99.9,30.38,South,176,0.3,5.5,-999,0.00,,,0.00,homebrew,2013-02-13 16:40:00,
2013-02-13 08:45:00,44.6,-99.9,30.39,South,171,0.2,0.0,-999,0.00,,,0.00,homebrew,2013-02-13 16:45:00,
2013-02-13 08:50:00,44.6,-99.9,30.39,SSE,164,1.9,3.6,-999,0.00,,,0.00,homebrew,2013-02-13 16:50:00,
2013-02-13 08:55:00,44.6,-99.9,30.39,SSE,159,0.8,5.6,-999,0.00,,,0.00,homebrew,2013-02-13 16:55:00,
2013-02-13 09:05:00,44.5,-99.9,30.39,WSW,237,0.0,3.7,-999,0.00,,,0.00,homebrew,2013-02-13 17:05:00,
2013-02-13 09:10:00,44.5,-99.9,30.39,SSW,199,1.3,2.9,-999,0.00,,,0.00,homebrew,2013-02-13 17:10:00,
2013-02-13 09:15:00,44.6,-99.9,30.39,SE,146,1.9,6.7,-999,0.00,,,0.00,homebrew,2013-02-13 17:15:00,
2013-02-13 09:25:00,44.7,-99.9,30.40,SSW,202,0.9,6.3,-999,0.00,,,0.00,homebrew,2013-02-13 17:25:00,
2013-02-13 09:30:00,44.8,-99.9,30.40,SSE,159,0.8,6.2,-999,0.00,,,0.00,homebrew,2013-02-13 17:30:00,
2013-02-13 09:35:00,45.0,-99.9,30.40,East,96,0.2,4.5,-999,0.00,,,0.00,homebrew,2013-02-13 17:35:00,
2013-02-13 09:40:00,45.0,-99.9,30.40,South,184,2.6,8.6,-999,0.00,,,0.00,homebrew,2013-02-13 17:40:00,
2013-02-13 09:45:00,45.1,-99.9,30.40,South,189,2.1,9.6,-999,0.00,,,0.00,homebrew,2013-02-13 17:45:00,
2013-02-13 09:50:00,45.3,-99.9,30.40,South,182,1.0,7.7,-999,0.00,,,0.00,homebrew,2013-02-13 17:50:00,
2013-02-13 09:55:00,45.3,-99.9,30.40,South,189,2.8,6.0,-999,0.00,,,0.00,homebrew,2013-02-13 17:55:00,
2013-02-13 10:00:00,45.4,-99.9,30.40,SSW,203,2.4,7.4,-999,0.00,,,0.00,homebrew,2013-02-13 18:00:00,
2013-02-13 10:05:00,45.3,-99.9,30.40,SSW,199,2.9,10.9,-999,0.00,,,0.00,homebrew,2013-02-13 18:05:00,
2013-02-13 10:15:00,45.4,-99.9,30.40,SSW,206,2.3,7.4,-999,0.00,,,0.00,homebrew,2013-02-13 18:15:00,
2013-02-13 10:20:00,45.4,-99.9,30.40,South,189,1.1,6.3,-999,0.00,,,0.00,homebrew,2013-02-13 18:20:00,
2013-02-13 10:25:00,45.5,-99.9,30.40,SSE,151,0.4,4.0,-999,0.00,,,0.00,homebrew,2013-02-13 18:25:00,
2013-02-13 10:30:00,45.4,-99.9,30.40,SSW,197,1.8,5.6,-999,0.00,,,0.00,homebrew,2013-02-13 18:30:00,
2013-02-13 10:35:00,45.4,-99.9,30.40,South,190,1.6,5.1,-999,0.00,,,0.00,homebrew,2013-02-13 18:35:00,
2013-02-13 10:40:00,45.5,-99.9,30.40,SSW,197,1.5,3.9,-999,0.00,,,0.00,homebrew,2013-02-13 18:40:00,
2013-02-13 10:45:00,45.4,-99.9,30.40,SSW,209,2.2,5.4,-999,0.00,,,0.00,homebrew,2013-02-13 18:45:00,
2013-02-13 10:50:00,45.3,-99.9,30.40,SW,214,2.3,5.7,-999,0.00,,,0.00,homebrew,2013-02-13 18:50:00,
2013-02-13 11:00:00,45.2,-99.9,30.41,SSW,201,2.7,6.6,-999,0.00,,,0.00,homebrew,2013-02-13 19:00:00,
2013-02-13 11:05:00,45.2,-99.9,30.41,SSW,195,1.6,8.5,-999,0.00,,,0.00,homebrew,2013-02-13 19:05:00,
2013-02-13 11:10:00,45.2,-99.9,30.41,SW,220,2.0,5.1,-999,0.00,,,0.00,homebrew,2013-02-13 19:10:00,
2013-02-13 11:20:00,45.2,-99.9,30.41,SSW,210,3.4,8.8,-999,0.00,,,0.00,homebrew,2013-02-13 19:20:00,
2013-02-13 11:25:00,45.2,-99.9,30.41,SSW,193,1.9,8.1,-999,0.00,,,0.00,homebrew,2013-02-13 19:25:00,
2013-02-13 11:30:00,45.2,-99.9,30.41,SSW,203,2.4,5.8,-999,0.00,,,0.00,homebrew,2013-02-13 19:30:00,
2013-02-13 11:35:00,45.2,-99.9,30.40,SW,217,3.9,8.0,-999,0.00,,,0.00,homebrew,2013-02-13 19:35:00,
2013-02-13 11:40:00,45.2,-99.9,30.40,SSW,205,2.3,9.3,-999,0.00,,,0.00,homebrew,2013-02-13 19:40:00,
2013-02-13 11:50:00,45.5,-99.9,30.41,SSW,209,2.1,8.6,-999,0.00,,,0.00,homebrew,2013-02-13 19:50:00,
2013-02-13 11:55:00,45.6,-99.9,30.41,South,189,2.6,8.6,-999,0.00,,,0.00,homebrew,2013-02-13 19:55:00,
2013-02-13 12:00:00,45.7,-99.9,30.41,SSW,209,2.5,9.0,-999,0.00,,,0.00,homebrew,2013-02-13 20:00:00,
2013-02-13 12:10:00,45.9,-99.9,30.41,SSW,208,1.9,4.5,-999,0.00,,,0.00,homebrew,2013-02-13 20:10:00,
2013-02-13 12:15:00,45.7,-99.9,30.40,SSW,211,3.1,9.0,-999,0.00,,,0.00,homebrew,2013-02-13 20:15:00,
2013-02-13 12:20:00,45.7,-99.9,30.40,SW,214,2.8,6.8,-999,0.00,,,0.00,homebrew,2013-02-13 20:20:00,
2013-02-13 12:25:00,45.6,-99.9,30.40,SW,219,4.0,7.9,-999,0.00,,,0.00,homebrew,2013-02-13 20:25:00,
2013-02-13 12:30:00,45.6,-99.9,30.40,SSW,200,1.6,9.9,-999,0.00,,,0.00,homebrew,2013-02-13 20:30:00,
2013-02-13 12:35:00,45.6,-99.9,30.40,SSW,198,2.2,9.0,-999,0.00,,,0.00,homebrew,2013-02-13 20:35:00,
2013-02-13 12:40:00,45.8,-99.9,30.40,SSW,201,2.2,7.3,-999,0.00,,,0.00,homebrew,2013-02-13 20:40:00,
2013-02-13 12:45:00,46.0,-99.9,30.40,SSW,213,1.7,5.4,-999,0.00,,,0.00,homebrew,2013-02-13 20:45:00,
2013-02-13 12:50:00,46.2,-99.9,30.40,SSW,196,2.2,5.9,-999,0.00,,,0.00,homebrew,2013-02-13 20:50:00,
2013-02-13 13:00:00,46.6,-99.9,30.40,SSW,195,2.2,9.2,-999,0.00,,,0.00,homebrew,2013-02-13 21:00:00,
2013-02-13 13:05:00,46.8,-99.9,30.40,SSE,158,0.6,5.7,-999,0.00,,,0.00,homebrew,2013-02-13 21:05:00,
2013-02-13 13:10:00,46.8,-99.9,30.40,SSW,193,2.1,8.9,-999,0.00,,,0.00,homebrew,2013-02-13 21:10:00,
2013-02-13 13:15:00,46.6,-99.9,30.40,SW,229,1.9,10.9,-999,0.00,,,0.00,homebrew,2013-02-13 21:15:00,
2013-02-13 13:20:00,46.7,-99.9,30.40,SSW,198,2.0,7.5,-999,0.00,,,0.00,homebrew,2013-02-13 21:20:00,
2013-02-13 13:25:00,46.6,-99.9,30.40,SSW,204,2.5,6.3,-999,0.00,,,0.00,homebrew,2013-02-13 21:25:00,
2013-02-13 13:30:00,46.7,-99.9,30.40,SSW,199,1.5,8.3,-999,0.00,,,0.00,homebrew,2013-02-13 21:30:00,
2013-02-13 13:35:00,46.5,-99.9,30.40,SSW,208,2.8,8.3,-999,0.00,,,0.00,homebrew,2013-02-13 21:35:00,
2013-02-13 13:40:00,46.6,-99.9,30.39,SW,220,2.5,7.6,-999,0.00,,,0.00,homebrew,2013-02-13 21:40:00,
2013-02-13 13:50:00,46.8,-99.9,30.40,SW,225,2.9,5.2,-999,0.00,,,0.00,homebrew,2013-02-13 21:50:00,
2013-02-13 13:55:00,46.7,-99.9,30.40,SW,215,2.7,6.3,-999,0.00,,,0.00,homebrew,2013-02-13 21:55:00,
2013-02-13 14:00:00,46.8,-99.9,30.40,SSW,209,1.8,4.5,-999,0.00,,,0.00,homebrew,2013-02-13 22:00:00,
2013-02-13 14:05:00,46.7,-99.9,30.40,SSW,212,2.0,5.5,-999,0.00,,,0.00,homebrew,2013-02-13 22:05:00,
2013-02-13 14:10:00,46.8,-99.9,30.40,SSW,206,1.6,5.6,-999,0.00,,,0.00,homebrew,2013-02-13 22:10:00,
2013-02-13 14:15:00,46.7,-99.9,30.40,SSW,201,2.4,5.4,-999,0.00,,,0.00,homebrew,2013-02-13 22:15:00,
2013-02-13 14:20:00,46.7,-99.9,30.40,SW,215,2.4,7.0,-999,0.00,,,0.00,homebrew,2013-02-13 22:20:00,
2013-02-13 14:25:00,46.7,-99.9,30.40,SSW,203,2.5,5.0,-999,0.00,,,0.00,homebrew,2013-02-13 22:25:00,
2013-02-13 14:30:00,46.7,-99.9,30.40,SSW,205,2.3,8.2,-999,0.00,,,0.00,homebrew,2013-02-13 22:30:00,
2013-02-13 14:35:00,46.8,-99.9,30.40,SSE,154,0.4,4.6,-999,0.00,,,0.00,homebrew,2013-02-13 22:35:00,
2013-02-13 14:40:00,46.9,-99.9,30.39,SSW,196,1.4,4.3,-999,0.00,,,0.00,homebrew,2013-02-13 22:40:00,
2013-02-13 14:45:00,47.0,-99.9,30.40,SSW,199,1.5,6.6,-999,0.00,,,0.00,homebrew,2013-02-13 22:45:00,
2013-02-13 14:55:00,47.4,-99.9,30.40,SSE,154,0.7,5.2,-999,0.00,,,0.00,homebrew,2013-02-13 22:55:00,
2013-02-13 15:00:00,47.4,-99.9,30.40,SW,232,2.2,5.1,-999,0.00,,,0.00,homebrew,2013-02-13 23:00:00,
2013-02-13 15:05:00,47.3,-99.9,30.40,SSW,207,2.1,6.3,-999,0.00,,,0.00,homebrew,2013-02-13 23:05:00,
2013-02-13 15:10:00,47.3,-99.9,30.40,SSW,195,2.0,5.8,-999,0.00,,,0.00,homebrew,2013-02-13 23:10:00,
2013-02-13 15:15:00,47.2,-99.9,30.40,SSW,211,2.3,5.0,-999,0.00,,,0.00,homebrew,2013-02-13 23:15:00,
2013-02-13 15:20:00,47.2,-99.9,30.40,South,187,1.2,4.8,-999,0.00,,,0.00,homebrew,2013-02-13 23:20:00,
2013-02-13 15:25:00,47.2,-99.9,30.40,SW,215,1.3,5.5,-999,0.00,,,0.00,homebrew,2013-02-13 23:25:00,
2013-02-13 15:30:00,47.2,-99.9,30.40,SSW,201,1.7,4.3,-999,0.00,,,0.00,homebrew,2013-02-13 23:30:00,
2013-02-13 15:35:00,47.1,-99.9,30.40,South,189,1.2,5.8,-999,0.00,,,0.00,homebrew,2013-02-13 23:35:00,
2013-02-13 15:45:00,47.1,-99.9,30.40,SW,226,0.0,2.2,-999,0.00,,,0.00,homebrew,2013-02-13 23:45:00,
2013-02-13 15:55:00,47.1,-99.9,30.40,South,176,0.7,4.5,-999,0.00,,,0.00,homebrew,2013-02-13 23:55:00,
2013-02-13 16:00:00,47.0,-99.9,30.40,SW,215,1.4,4.5,-999,0.00,,,0.00,homebrew,2013-02-14 00:00:00,
2013-02-13 16:05:00,46.9,-99.9,30.41,SSW,208,1.0,3.5,-999,0.00,,,0.00,homebrew,2013-02-14 00:05:00,
2013-02-13 16:10:00,46.9,-99.9,30.40,SSW,195,1.4,3.5,-999,0.00,,,0.00,homebrew,2013-02-14 00:10:00,
2013-02-13 16:15:00,47.0,-99.9,30.40,SSE,151,0.0,4.7,-999,0.00,,,0.00,homebrew,2013-02-14 00:15:00,
2013-02-13 16:20:00,47.0,-99.9,30.40,SSE,165,0.4,3.3,-999,0.00,,,0.00,homebrew,2013-02-14 00:20:00,
2013-02-13 16:25:00,47.1,-99.9,30.40,SSE,159,0.1,2.8,-999,0.00,,,0.00,homebrew,2013-02-14 00:25:00,
2013-02-13 16:35:00,47.0,-99.9,30.40,South,187,0.0,0.9,-999,0.00,,,0.00,homebrew,2013-02-14 00:35:00,
2013-02-13 16:45:00,47.0,-99.9,30.40,South,191,0.6,2.5,-999,0.00,,,0.00,homebrew,2013-02-14 00:45:00,
2013-02-13 16:50:00,46.9,-99.9,30.41,West,270,0.0,3.3,-999,0.00,,,0.00,homebrew,2013-02-14 00:50:00,
2013-02-13 16:55:00,46.9,-99.9,30.41,West,270,0.0,0.0,-999,0.00,,,0.00,homebrew,2013-02-14 00:55:00,
2013-02-13 17:05:00,46.9,-99.9,30.41,West,270,0.0,0.0,-999,0.00,,,0.00,homebrew,2013-02-14 01:05:00,
2013-02-13 17:10:00,46.8,-99.9,30.41,West,270,0.0,0.0,-999,0.00,,,0.00,homebrew,2013-02-14 01:10:00,
2013-02-13 17:20:00,46.6,-99.9,30.41,West,270,0.0,0.0,-999,0.00,,,0.00,homebrew,2013-02-14 01:20:00,
2013-02-13 17:25:00,46.5,-99.9,30.41,West,270,0.0,0.0,-999,0.00,,,0.00,homebrew,2013-02-14 01:25:00,
2013-02-13 17:30:00,46.3,-99.9,30.41,West,270,0.0,0.0,-999,0.00,,,0.00,homebrew,2013-02-14 01:30:00,
2013-02-13 17:40:00,46.1,-99.9,30.41,South,172,0.0,1.1,-999,0.00,,,0.00,homebrew,2013-02-14 01:40:00,
2013-02-13 17:45:00,46.0,-99.9,30.41,South,172,0.0,0.0,-999,0.00,,,0.00,homebrew,2013-02-14 01:45:00,
2013-02-13 17:50:00,46.0,-99.9,30.41,South,172,0.0,0.0,-999,0.00,,,0.00,homebrew,2013-02-14 01:50:00,
2013-02-13 17:55:00,46.0,-99.9,30.41,South,172,0.0,0.0,-999,0.00,,,0.00,homebrew,2013-02-14 01:55:00,
2013-02-13 18:00:00,46.0,-99.9,30.41,South,172,0.0,0.0,-999,0.00,,,0.00,homebrew,2013-02-14 02:00:00,
2013-02-13 18:05:00,46.0,-99.9,30.41,South,172,0.0,0.0,-999,0.00,,,0.00,homebrew,2013-02-14 02:05:00,
2013-02-13 18:10:00,46.1,-99.9,30.41,South,172,0.0,0.0,-999,0.00,,,0.00,homebrew,2013-02-14 02:10:00,
2013-02-13 18:15:00,46.1,-99.9,30.41,South,172,0.0,0.0,-999,0.00,,,0.00,homebrew,2013-02-14 02:15:00,
2013-02-13 18:20:00,45.9,-99.9,30.41,South,172,0.0,0.0,-999,0.00,,,0.00,homebrew,2013-02-14 02:20:00,
2013-02-13 18:25:00,45.9,-99.9,30.41,South,172,0.0,0.0,-999,0.00,,,0.00,homebrew,2013-02-14 02:25:00,
2013-02-13 18:30:00,45.9,-99.9,30.41,South,172,0.0,0.0,-999,0.00,,,0.00,homebrew,2013-02-14 02:30:00,
2013-02-13 18:35:00,45.8,-99.9,30.41,South,172,0.0,0.0,-999,0.00,,,0.00,homebrew,2013-02-14 02:35:00,
2013-02-13 18:45:00,45.9,-99.9,30.42,South,172,0.0,0.0,-999,0.00,,,0.00,homebrew,2013-02-14 02:45:00,
2013-02-13 18:55:00,46.1,-99.9,30.42,South,172,0.0,0.0,-999,0.00,,,0.00,homebrew,2013-02-14 02:55:00,
2013-02-13 19:00:00,46.1,-99.9,30.42,South,172,0.0,0.0,-999,0.00,,,0.00,homebrew,2013-02-14 03:00:00,
2013-02-13 19:05:00,46.0,-99.9,30.43,South,172,0.0,0.0,-999,0.00,,,0.00,homebrew,2013-02-14 03:05:00,
2013-02-13 19:10:00,45.9,-99.9,30.43,South,172,0.0,0.0,-999,0.00,,,0.00,homebrew,2013-02-14 03:10:00,
2013-02-13 19:15:00,45.8,-99.9,30.42,South,172,0.0,0.0,-999,0.00,,,0.00,homebrew,2013-02-14 03:15:00,
2013-02-13 19:20:00,45.7,-99.9,30.43,South,172,0.0,0.0,-999,0.00,,,0.00,homebrew,2013-02-14 03:20:00,
2013-02-13 19:25:00,45.4,-99.9,30.43,South,172,0.0,0.0,-999,0.00,,,0.00,homebrew,2013-02-14 03:25:00,
2013-02-13 19:30:00,45.4,-99.9,30.43,South,172,0.0,0.0,-999,0.00,,,0.00,homebrew,2013-02-14 03:30:00,
2013-02-13 19:35:00,45.4,-99.9,30.43,South,172,0.0,0.0,-999,0.00,,,0.00,homebrew,2013-02-14 03:35:00,
2013-02-13 19:40:00,45.4,-99.9,30.43,South,172,0.0,0.0,-999,0.00,,,0.00,homebrew,2013-02-14 03:40:00,
2013-02-13 19:50:00,45.3,-99.9,30.43,South,172,0.0,0.0,-999,0.01,,,0.01,homebrew,2013-02-14 03:50:00,
2013-02-13 19:55:00,45.4,-99.9,30.43,South,172,0.0,0.0,-999,0.01,,,0.01,homebrew,2013-02-14 03:55:00,
2013-02-13 20:00:00,45.1,-99.9,30.43,South,172,0.0,0.0,-999,0.01,,,0.01,homebrew,2013-02-14 04:00:00,
2013-02-13 20:05:00,45.0,-99.9,30.43,South,172,0.0,0.0,-999,0.01,,,0.01,homebrew,2013-02-14 04:05:00,
2013-02-13 20:10:00,45.0,-99.9,30.43,South,172,0.0,0.0,-999,0.01,,,0.01,homebrew,2013-02-14 04:10:00,
2013-02-13 20:15:00,44.8,-99.9,30.43,South,172,0.0,0.0,-999,0.01,,,0.01,homebrew,2013-02-14 04:15:00,
2013-02-13 20:20:00,44.8,-99.9,30.43,South,172,0.0,0.0,-999,0.01,,,0.01,homebrew,2013-02-14 04:20:00,
2013-02-13 20:25:00,44.9,-99.9,30.43,South,172,0.0,0.0,-999,0.01,,,0.01,homebrew,2013-02-14 04:25:00,
2013-02-13 20:30:00,44.8,-99.9,30.43,South,172,0.0,0.0,-999,0.01,,,0.01,homebrew,2013-02-14 04:30:00,
2013-02-13 20:40:00,44.7,-99.9,30.43,South,172,0.0,0.0,-999,0.01,,,0.01,homebrew,2013-02-14 04:40:00,
2013-02-13 20:45:00,44.7,-99.9,30.43,South,172,0.0,0.0,-999,0.00,,,0.01,homebrew,2013-02-14 04:45:00,
2013-02-13 20:50:00,44.6,-99.9,30.44,SSE,168,0.7,0.7,-999,0.00,,,0.01,homebrew,2013-02-14 04:50:00,
2013-02-13 20:55:00,44.6,-99.9,30.43,SSE,164,0.2,4.3,-999,0.00,,,0.01,homebrew,2013-02-14 04:55:00,
2013-02-13 21:05:00,44.6,-99.9,30.44,SSE,148,0.0,2.1,-999,0.00,,,0.01,homebrew,2013-02-14 05:05:00,
2013-02-13 21:10:00,44.6,-99.9,30.44,SSW,194,0.0,0.7,-999,0.00,,,0.01,homebrew,2013-02-14 05:10:00,
2013-02-13 21:15:00,44.7,-99.9,30.44,SSW,194,0.0,0.0,-999,0.00,,,0.01,homebrew,2013-02-14 05:15:00,
2013-02-13 21:20:00,44.8,-99.9,30.44,SSW,194,0.0,0.0,-999,0.00,,,0.01,homebrew,2013-02-14 05:20:00,
2013-02-13 21:25:00,44.7,-99.9,30.43,SSW,194,0.0,0.0,-999,0.00,,,0.01,homebrew,2013-02-14 05:25:00,
2013-02-13 21:30:00,44.7,-99.9,30.43,SSE,165,0.4,0.0,-999,0.00,,,0.01,homebrew,2013-02-14 05:30:00,
2013-02-13 21:35:00,44.7,-99.9,30.43,SE,136,0.0,3.8,-999,0.00,,,0.01,homebrew,2013-02-14 05:35:00,
2013-02-13 21:45:00,44.6,-99.9,30.44,SE,136,0.0,0.0,-999,0.00,,,0.01,homebrew,2013-02-14 05:45:00,
2013-02-13 21:50:00,44.6,-99.9,30.44,South,169,0.3,0.0,-999,0.00,,,0.01,homebrew,2013-02-14 05:50:00,
2013-02-13 21:55:00,44.6,-99.9,30.44,SSW,205,0.6,2.3,-999,0.00,,,0.01,homebrew,2013-02-14 05:55:00,
2013-02-13 22:00:00,44.6,-99.9,30.44,SSW,206,0.7,4.2,-999,0.00,,,0.01,homebrew,2013-02-14 06:00:00,
2013-02-13 22:05:00,44.6,-99.9,30.44,SW,229,0.0,3.4,-999,0.00,,,0.01,homebrew,2013-02-14 06:05:00,
2013-02-13 22:10:00,44.6,-99.9,30.45,SW,228,0.1,1.3,-999,0.00,,,0.01,homebrew,2013-02-14 06:10:00,
2013-02-13 22:15:00,44.5,-99.9,30.45,SW,231,0.2,0.0,-999,0.00,,,0.01,homebrew,2013-02-14 06:15:00,
2013-02-13 22:20:00,44.4,-99.9,30.45,WSW,244,0.1,3.0,-999,0.00,,,0.01,homebrew,2013-02-14 06:20:00,
2013-02-13 22:25:00,44.3,-99.9,30.45,SW,230,0.3,1.9,-999,0.00,,,0.01,homebrew,2013-02-14 06:25:00,
2013-02-13 22:30:00,44.3,-99.9,30.45,SW,223,0.0,0.0,-999,0.00,,,0.01,homebrew,2013-02-14 06:30:00,
2013-02-13 22:35:00,44.3,-99.9,30.45,SW,223,0.0,0.0,-999,0.00,,,0.01,homebrew,2013-02-14 06:35:00,
2013-02-13 22:40:00,44.3,-99.9,30.45,SW,223,0.0,0.0,-999,0.00,,,0.01,homebrew,2013-02-14 06:40:00,
2013-02-13 22:50:00,44.3,-99.9,30.45,SSE,162,0.2,3.8,-999,0.00,,,0.01,homebrew,2013-02-14 06:50:00,
2013-02-13 22:55:00,44.3,-99.9,30.45,South,186,0.9,2.4,-999,0.00,,,0.01,homebrew,2013-02-14 06:55:00,
2013-02-13 23:00:00,44.2,-99.9,30.45,SSW,204,1.4,3.9,-999,0.00,,,0.01,homebrew,2013-02-14 07:00:00,
2013-02-13 23:05:00,44.2,-99.9,30.45,South,182,0.4,5.5,-999,0.00,,,0.01,homebrew,2013-02-14 07:05:00,
2013-02-13 23:10:00,44.1,-99.9,30.46,South,185,0.9,3.5,-999,0.00,,,0.01,homebrew,2013-02-14 07:10:00,
2013-02-13 23:15:00,44.1,-99.9,30.45,South,176,0.2,4.7,-999,0.00,,,0.01,homebrew,2013-02-14 07:15:00,
2013-02-13 23:20:00,44.1,-99.9,30.45,South,184,0.0,3.7,-999,0.00,,,0.01,homebrew,2013-02-14 07:20:00,
2013-02-13 23:25:00,44.0,-99.9,30.45,SSW,192,1.0,0.0,-999,0.00,,,0.01,homebrew,2013-02-14 07:25:00,
2013-02-13 23:30:00,43.9,-99.9,30.45,South,170,0.2,5.4,-999,0.00,,,0.01,homebrew,2013-02-14 07:30:00,
2013-02-13 23:40:00,43.8,-99.9,30.46,SSE,158,0.3,0.0,-999,0.00,,,0.01,homebrew,2013-02-14 07:40:00,
2013-02-13 23:45:00,43.8,-99.9,30.46,SSE,166,0.4,2.9,-999,0.00,,,0.00,homebrew,2013-02-14 07:45:00,
2013-02-13 23:55:00,43.8,-99.9,30.47,South,182,0.3,0.0,-999,0.00,,,0.00,homebrew,2013-02-14 07:55:00,